Ithaca, NY

8:21 PM EDT on May 22, 2017 (GMT -0400)
Tompkins County

Weather History for KITH - August, 2013

Change the Weather History Date:

Friday, August 2, 2013

  Actual Average Record
Temperature  
Mean Temperature 64 °F -  
Max Temperature 75 °F 80 °F 96 °F (1955)
Min Temperature 53 °F 58 °F 41 °F (1947)
Degree Days  
Heating Degree Days 1    
Growing Degree Days 14 (Base 50)    
Moisture  
Dew Point 58 °F    
Average Humidity 87    
Maximum Humidity 100    
Minimum Humidity 51    
Precipitation  
Precipitation 0.31 in - - ()
Sea Level Pressure  
Sea Level Pressure 29.91 in    
Wind  
Wind Speed 3 mph (South)    
Max Wind Speed 15 mph    
Max Gust Speed 29 mph    
Visibility 8 miles    
Events Fog , Rain , Thunderstorm    
Averages and records for this station are not official NWS values.
T = Trace of Precipitation, MM = Missing Value Source: NWS Daily Summary

Daily Weather History Graph

Daily Weather History Graph

Search for Another Location

Airport or City:

Trip Planner

Search our weather history database for the weather conditions in past years. The results will help you decide how hot, cold, wet, or windy it might be!

Date:

Astronomy

Aug. 02, 2013 Rise Set
Actual Time 5:59 AM EDT 8:24 PM EDT
Civil Twilight 5:27 AM EDT 8:55 PM EDT
Nautical Twilight 4:48 AM EDT 9:35 PM EDT
Astronomical Twilight 4:03 AM EDT 10:18 PM EDT
Moon 2:17 AM EDT (8/2) 5:21 PM EDT (8/2)
Length of Visible Light 15h 28m
Length of Day
14h 24m
Waning Crescent, 16% of the Moon is Illuminated
Aug 2
Waning Crescent
Aug 6
New
Aug 14
First Quarter
Aug 20
Full
Aug 28
Last Quarter

Hourly Weather History & Observations

Time (EDT) Temp. Dew Point Humidity Pressure Visibility Wind Dir Wind Speed Gust Speed Precip Events Conditions
12:56 AM 57.9 °F 56.8 °F 96% 29.90 in 4.0 mi East 3.5 mph - N/A   Clear
1:56 AM 56.8 °F 55.9 °F 97% 29.89 in 4.0 mi Calm Calm - N/A   Scattered Clouds
2:56 AM 55.9 °F 54.9 °F 96% 29.87 in 4.0 mi Calm Calm - N/A   Partly Cloudy
3:56 AM 56.8 °F 55.9 °F 97% 29.88 in 6.0 mi Calm Calm - N/A   Mostly Cloudy
4:56 AM 54.9 °F 54.9 °F 100% 29.89 in 4.0 mi Calm Calm - N/A   Partly Cloudy
5:56 AM 54.0 °F 52.9 °F 96% 29.91 in 2.5 mi Calm Calm - N/A   Clear
6:04 AM 53.6 °F 53.6 °F 100% 29.91 in 3.0 mi East 3.5 mph - N/A   Clear
6:28 AM 53.6 °F 53.6 °F 100% 29.91 in 10.0 mi East 3.5 mph - N/A Fog Patches of Fog
6:56 AM 55.9 °F 54.9 °F 96% 29.91 in 10.0 mi Calm Calm - N/A Fog Patches of Fog
7:56 AM 63.0 °F 59.9 °F 90% 29.92 in 10.0 mi Calm Calm - N/A   Clear
8:56 AM 68.0 °F 59.0 °F 73% 29.94 in 10.0 mi WSW 3.5 mph - N/A   Clear
9:56 AM 70.9 °F 59.0 °F 66% 29.94 in 10.0 mi WSW 5.8 mph - N/A   Scattered Clouds
10:56 AM 72.9 °F 59.0 °F 62% 29.92 in 10.0 mi SSW 5.8 mph - N/A   Scattered Clouds
11:56 AM 75.9 °F 56.8 °F 51% 29.91 in 10.0 mi SW 5.8 mph - N/A   Scattered Clouds
12:56 PM 72.0 °F 57.9 °F 61% 29.91 in 10.0 mi SW 5.8 mph - 0.00 in Rain Light Rain
1:56 PM 68.9 °F 61.9 °F 78% 29.91 in 10.0 mi Calm Calm - 0.05 in   Mostly Cloudy
2:56 PM 65.8 °F 61.0 °F 84% 29.92 in 10.0 mi NNW 8.1 mph - 0.02 in Rain , Thunderstorm Light Thunderstorms and Rain
3:11 PM 62.6 °F 60.8 °F 94% 29.95 in 3.0 mi NW 15.0 mph 28.8 mph 0.16 in Rain , Thunderstorm Heavy Thunderstorms and Rain
3:31 PM 62.6 °F 60.8 °F 94% 29.93 in 5.0 mi NNE 5.8 mph - 0.22 in Rain Light Rain
3:56 PM 63.0 °F 61.0 °F 93% 29.94 in 6.0 mi Calm Calm - 0.24 in Rain Light Rain
4:56 PM 65.8 °F 61.9 °F 87% 29.90 in 10.0 mi ESE 4.6 mph - 0.00 in   Scattered Clouds
5:56 PM 68.0 °F 59.9 °F 75% 29.90 in 10.0 mi South 3.5 mph - N/A   Scattered Clouds
6:56 PM 68.0 °F 61.9 °F 81% 29.90 in 10.0 mi Calm Calm - 0.00 in   Mostly Cloudy
7:56 PM 65.8 °F 61.9 °F 87% 29.90 in 10.0 mi South 3.5 mph - N/A   Scattered Clouds
8:56 PM 61.9 °F 61.0 °F 97% 29.90 in 6.0 mi Calm Calm - N/A   Mostly Cloudy
8:58 PM 62.6 °F 60.8 °F 94% 29.91 in 10.0 mi Calm Calm - N/A   Mostly Cloudy
9:56 PM 61.0 °F 59.9 °F 96% 29.91 in 10.0 mi ESE 3.5 mph - N/A   Mostly Cloudy
10:56 PM 61.9 °F 59.0 °F 90% 29.90 in 10.0 mi Calm Calm - N/A   Scattered Clouds
11:56 PM 63.0 °F 59.0 °F 87% 29.89 in 10.0 mi South 5.8 mph - N/A   Overcast